| time (UTC) | temp F | wind direction | speed MPH | gust MPH | rain 1hr in | rain 24hr in | rain mn in | humidity % | barometer mb |
| 20260831114543 | 79 | 220 | 3.0 | 7.0 | 0.00 | 0.00 | 0.00 | 64 | 1008.7 |
| 20260831113043 | 79 | 226 | 2.0 | 9.0 | 0.00 | 0.00 | 0.00 | 63 | 1008.4 |
| 20260831111543 | 79 | 207 | 2.0 | 6.0 | 0.00 | 0.00 | 0.00 | 63 | 1008.6 |
| 20260831110038 | 79 | 201 | 0.0 | 8.0 | 0.00 | 0.00 | 0.00 | 63 | 1008.4 |
| 20260831104549 | 79 | 162 | 0.0 | 5.0 | 0.00 | 0.00 | 0.00 | 62 | 1008.4 |
| 20260831103033 | 80 | 126 | 1.0 | 10.0 | 0.00 | 0.00 | 0.00 | 62 | 1008.2 |
| 20260831101534 | 80 | 224 | 1.0 | 7.0 | 0.00 | 0.00 | 0.00 | 61 | 1008.2 |
| 20260831100029 | 81 | 139 | 2.0 | 7.0 | 0.00 | 0.00 | 0.00 | 60 | 1008.1 |
| 20260831094537 | 81 | 89 | 1.0 | 7.0 | 0.00 | 0.00 | 0.00 | 59 | 1007.9 |
| 20260831093031 | 81 | 174 | 0.0 | 10.0 | 0.00 | 0.00 | 0.00 | 58 | 1007.7 |
| 20260831091537 | 81 | 107 | 2.0 | 7.0 | 0.00 | 0.00 | 0.00 | 59 | 1007.6 |
| 20260831090023 | 81 | 164 | 1.0 | 7.0 | 0.00 | 0.00 | 0.00 | 57 | 1007.5 |
| 20260831084542 | 82 | 93 | 2.0 | 5.0 | 0.00 | 0.00 | 0.00 | 56 | 1007.4 |
| 20260831083017 | 83 | 185 | 1.0 | 8.0 | 0.00 | 0.00 | 0.00 | 55 | 1007.4 |
| 20260831081516 | 83 | 297 | 1.0 | 8.0 | 0.00 | 0.00 | 0.00 | 55 | 1007.3 |
| 20260831080032 | 84 | 118 | 2.0 | 8.0 | 0.00 | 0.00 | 0.00 | 54 | 1007.3 |
| 20260831074522 | 84 | 189 | 3.0 | 12.0 | 0.00 | 0.00 | 0.00 | 54 | 1007.3 |
| 20260831073013 | 84 | 116 | 2.0 | 9.0 | 0.00 | 0.00 | 0.00 | 53 | 1007.2 |
| 20260831071509 | 85 | 267 | 2.0 | 7.0 | 0.00 | 0.00 | 0.00 | 53 | 1007.1 |
| 20260831070009 | 85 | 277 | 1.0 | 7.0 | 0.00 | 0.00 | 0.00 | 52 | 1007.2 |
| 20260831064507 | 85 | 206 | 1.0 | 4.0 | 0.00 | 0.00 | 0.00 | 52 | 1007.1 |
| 20260831063004 | 86 | 218 | 1.0 | 7.0 | 0.00 | 0.00 | 0.00 | 52 | 1007.1 |
| 20260831061501 | 86 | 116 | 3.0 | 9.0 | 0.00 | 0.00 | 0.00 | 51 | 1007.0 |
| 20260831060110 | 86 | 122 | 3.0 | 9.0 | 0.00 | 0.00 | 0.00 | 51 | 1006.8 |
| 20260831054559 | 86 | 121 | 3.0 | 7.0 | 0.00 | 0.00 | 0.00 | 51 | 1006.8 |
| 20260831053102 | 87 | 125 | 2.0 | 10.0 | 0.00 | 0.00 | 0.00 | 51 | 1006.7 |
| 20260831051557 | 87 | 148 | 1.0 | 11.0 | 0.00 | 0.00 | 0.00 | 51 | 1006.6 |
| 20260831050055 | 87 | 103 | 3.0 | 9.0 | 0.00 | 0.00 | 0.00 | 52 | 1006.5 |
| 20260831044555 | 87 | 187 | 4.0 | 10.0 | 0.00 | 0.00 | 0.00 | 51 | 1006.5 |
| 20260831043054 | 87 | 179 | 1.0 | 7.0 | 0.00 | 0.00 | 0.00 | 52 | 1006.4 |
| 20260831041554 | 87 | 169 | 2.0 | 5.0 | 0.00 | 0.00 | 0.00 | 51 | 1006.4 |
| 20260831040053 | 87 | 118 | 2.0 | 8.0 | 0.00 | 0.00 | 0.00 | 52 | 1006.4 |
| 20260831034602 | 87 | 85 | 1.0 | 6.0 | 0.00 | 0.00 | 0.00 | 52 | 1006.4 |
| 20260831033058 | 87 | 162 | 1.0 | 8.0 | 0.00 | 0.00 | 0.00 | 53 | 1006.4 |
| 20260831031552 | 87 | 129 | 1.0 | 6.0 | 0.00 | 0.00 | 0.00 | 52 | 1006.4 |
| 20260831030055 | 87 | 119 | 1.0 | 8.0 | 0.00 | 0.00 | 0.00 | 53 | 1006.4 |
| 20260831024558 | 87 | 70 | 1.0 | 4.0 | 0.00 | 0.00 | 0.00 | 53 | 1006.3 |
| 20260831023051 | 88 | 106 | 0.0 | 7.0 | 0.00 | 0.00 | 0.00 | 53 | 1006.2 |
| 20260831021551 | 88 | 182 | 1.0 | 4.0 | 0.00 | 0.00 | 0.00 | 53 | 1006.0 |
| 20260831020051 | 88 | 195 | 1.0 | 5.0 | 0.00 | 0.00 | 0.00 | 53 | 1005.8 |
| 20260831014551 | 88 | 152 | 0.0 | 5.0 | 0.00 | 0.00 | 0.00 | 55 | 1005.7 |
| 20260831013049 | 89 | 151 | 0.0 | 3.0 | 0.00 | 0.00 | 0.00 | 54 | 1005.5 |
| 20260831011558 | 90 | 151 | 0.0 | 3.0 | 0.00 | 0.00 | 0.00 | 53 | 1005.4 |
| 20260831010058 | 91 | 151 | 0.0 | 2.0 | 0.00 | 0.00 | 0.00 | 52 | 1005.2 |
| 20260831004548 | 92 | 151 | 0.0 | 3.0 | 0.00 | 0.00 | 0.00 | 51 | 1005.1 |
| 20260831003050 | 93 | 151 | 1.0 | 4.0 | 0.00 | 0.00 | 0.00 | 50 | 1005.1 |
| 20260831001547 | 95 | 146 | 0.0 | 4.0 | 0.00 | 0.00 | 0.00 | 49 | 1005.0 |
| 20260831000047 | 96 | 151 | 1.0 | 5.0 | 0.00 | 0.00 | 0.00 | 48 | 1005.0 |
| 20260830234549 | 97 | 104 | 0.0 | 4.0 | 0.00 | 0.00 | 0.00 | 47 | 1005.0 |
| 20260830233054 | 98 | 114 | 1.0 | 5.0 | 0.00 | 0.00 | 0.00 | 47 | 1004.9 |
| 20260830231547 | 98 | 124 | 1.0 | 6.0 | 0.00 | 0.00 | 0.00 | 46 | 1004.8 |
| 20260830230048 | 98 | 106 | 1.0 | 8.0 | 0.00 | 0.00 | 0.00 | 46 | 1004.8 |
| 20260830224545 | 98 | 144 | 3.0 | 7.0 | 0.00 | 0.00 | 0.00 | 45 | 1004.6 |
| 20260830223044 | 99 | 118 | 3.0 | 10.0 | 0.00 | 0.00 | 0.00 | 45 | 1004.7 |
| 20260830221543 | 99 | 182 | 1.0 | 9.0 | 0.00 | 0.00 | 0.00 | 45 | 1004.8 |
| 20260830220042 | 99 | 114 | 4.0 | 12.0 | 0.00 | 0.00 | 0.00 | 43 | 1004.8 |
| 20260830214642 | 99 | 206 | 5.0 | 13.0 | 0.00 | 0.00 | 0.00 | 43 | 1004.9 |
| 20260830213039 | 99 | 194 | 3.0 | 7.0 | 0.00 | 0.00 | 0.00 | 44 | 1005.0 |
| 20260830211548 | 99 | 237 | 3.0 | 9.0 | 0.00 | 0.00 | 0.00 | 44 | 1005.1 |
| 20260830210036 | 99 | 98 | 4.0 | 14.0 | 0.00 | 0.00 | 0.00 | 44 | 1005.4 |
| 20260830204534 | 98 | 90 | 3.0 | 13.0 | 0.00 | 0.00 | 0.00 | 45 | 1005.7 |
| 20260830203032 | 98 | 161 | 3.0 | 10.0 | 0.00 | 0.00 | 0.00 | 48 | 1005.6 |
| 20260830201536 | 98 | 195 | 2.0 | 10.0 | 0.00 | 0.00 | 0.00 | 46 | 1005.9 |
| 20260830200026 | 98 | 174 | 4.0 | 10.0 | 0.00 | 0.00 | 0.00 | 46 | 1006.1 |
| 20260830194524 | 97 | 231 | 5.0 | 11.0 | 0.00 | 0.00 | 0.00 | 46 | 1006.3 |
| 20260830193023 | 96 | 137 | 4.0 | 11.0 | 0.00 | 0.00 | 0.00 | 48 | 1006.4 |
| 20260830191518 | 95 | 187 | 2.0 | 13.0 | 0.00 | 0.00 | 0.00 | 51 | 1006.4 |
| 20260830190018 | 94 | 147 | 5.0 | 11.0 | 0.00 | 0.00 | 0.00 | 50 | 1006.6 |
| 20260830184513 | 94 | 229 | 5.0 | 15.0 | 0.00 | 0.00 | 0.00 | 51 | 1006.7 |
| 20260830183016 | 94 | 269 | 3.0 | 8.0 | 0.00 | 0.00 | 0.00 | 53 | 1006.8 |
| 20260830181507 | 93 | 242 | 4.0 | 15.0 | 0.00 | 0.00 | 0.00 | 53 | 1007.1 |
| 20260830180004 | 92 | 189 | 2.0 | 12.0 | 0.00 | 0.00 | 0.00 | 54 | 1007.2 |
| 20260830174508 | 91 | 195 | 5.0 | 11.0 | 0.00 | 0.00 | 0.00 | 53 | 1007.2 |
| 20260830173104 | 91 | 140 | 4.0 | 9.0 | 0.00 | 0.00 | 0.00 | 54 | 1007.3 |
| 20260830171606 | 90 | 234 | 3.0 | 14.0 | 0.00 | 0.00 | 0.00 | 55 | 1007.4 |
| 20260830170056 | 90 | 101 | 3.0 | 11.0 | 0.00 | 0.00 | 0.00 | 56 | 1007.7 |
| 20260830164554 | 89 | 141 | 1.0 | 16.0 | 0.00 | 0.00 | 0.00 | 57 | 1007.7 |
| 20260830163059 | 88 | 193 | 1.0 | 10.0 | 0.00 | 0.00 | 0.00 | 58 | 1007.9 |
| 20260830161550 | 87 | 174 | 2.0 | 10.0 | 0.00 | 0.00 | 0.00 | 59 | 1008.0 |
| 20260830160058 | 86 | 103 | 3.0 | 10.0 | 0.00 | 0.00 | 0.00 | 60 | 1007.9 |
| 20260830154542 | 85 | 168 | 4.0 | 12.0 | 0.00 | 0.00 | 0.00 | 61 | 1007.9 |
| 20260830153039 | 84 | 235 | 6.0 | 10.0 | 0.00 | 0.00 | 0.00 | 61 | 1007.9 |
| 20260830151541 | 84 | 194 | 3.0 | 9.0 | 0.00 | 0.00 | 0.00 | 60 | 1007.8 |
| 20260830150035 | 83 | 211 | 3.0 | 13.0 | 0.00 | 0.00 | 0.00 | 61 | 1007.7 |
| 20260830144535 | 83 | 274 | 3.0 | 10.0 | 0.00 | 0.00 | 0.00 | 62 | 1007.6 |
| 20260830143040 | 82 | 268 | 2.0 | 10.0 | 0.00 | 0.00 | 0.00 | 62 | 1007.5 |
| 20260830141536 | 81 | 205 | 3.0 | 12.0 | 0.00 | 0.00 | 0.00 | 63 | 1007.6 |
| 20260830140031 | 80 | 154 | 2.0 | 11.0 | 0.00 | 0.00 | 0.00 | 63 | 1007.7 |
| 20260830134540 | 79 | 211 | 2.0 | 9.0 | 0.00 | 0.00 | 0.00 | 64 | 1007.7 |
| 20260830133030 | 79 | 222 | 4.0 | 13.0 | 0.00 | 0.00 | 0.00 | 63 | 1007.7 |
| 20260830131534 | 79 | 168 | 1.0 | 18.0 | 0.00 | 0.00 | 0.00 | 64 | 1007.8 |
| 20260830130031 | 79 | 275 | 3.0 | 17.0 | 0.00 | 0.00 | 0.00 | 64 | 1008.0 |
| 20260830124529 | 78 | 226 | 5.0 | 13.0 | 0.00 | 0.00 | 0.00 | 64 | 1008.0 |
| 20260830123038 | 78 | 210 | 2.0 | 9.0 | 0.00 | 0.00 | 0.00 | 63 | 1008.1 |
| 20260830121537 | 78 | 108 | 3.0 | 12.0 | 0.00 | 0.00 | 0.00 | 63 | 1008.1 |
| 20260830120029 | 78 | 185 | 1.0 | 9.0 | 0.00 | 0.00 | 0.00 | 62 | 1008.1 |